Location: La Pernelle
(49.6188°N, 1.2999°W)
Time: 18:09:54
(UTC+00:00)

Cosmos 1844 Rocket - Visible Passes

Search period start: 17 October 2021 00:00
Search period end: 27 October 2021 00:00
Orbit: 825 x 843 km, 71.0° (Epoch: 16 October)

Date Brightness Start Highest point End Pass type
(mag) Time Alt. Az. Time Alt. Az. Time Alt. Az.
17 Oct 4.6 17:39:21 10° N 17:42:00 13° NNE 17:44:39 10° ENE visible
17 Oct 3.0 19:22:07 10° NNW 19:27:28 44° NE 19:27:40 43° ENE visible
17 Oct 4.4 21:06:12 10° NW 21:09:20 28° WNW 21:09:20 28° WNW visible
18 Oct 3.1 19:04:55 10° NNW 19:10:11 41° NE 19:11:04 38° ENE visible
18 Oct 4.1 20:48:55 10° NW 20:52:43 34° WNW 20:52:43 34° WNW visible
19 Oct 3.2 18:47:42 10° NNW 18:52:55 38° NE 18:54:30 32° E visible
19 Oct 3.7 20:31:38 10° NW 20:36:11 41° W 20:36:11 41° W visible
20 Oct 3.3 18:30:30 10° NNW 18:35:38 36° NE 18:38:02 25° E visible
20 Oct 3.4 20:14:21 10° NW 20:19:41 47° WSW 20:19:43 47° WSW visible
21 Oct 3.4 18:13:17 10° NNW 18:18:20 33° NE 18:21:39 19° E visible
21 Oct 3.3 19:57:04 10° NW 20:02:28 51° WSW 20:03:21 47° SW visible
22 Oct 3.5 17:56:06 10° NNW 18:01:03 31° NE 18:05:24 13° ESE visible
22 Oct 3.2 19:39:48 10° NW 19:45:15 56° WSW 19:47:05 38° SSW visible
23 Oct 3.5 17:38:53 10° NNW 17:43:45 29° NE 17:48:35 10° ESE visible
23 Oct 3.1 19:22:32 10° NW 19:28:03 61° WSW 19:31:01 27° S visible
24 Oct 3.6 17:21:42 10° NNW 17:26:27 28° NE 17:31:12 10° ESE visible
24 Oct 3.0 19:05:17 10° NNW 19:10:49 66° WSW 19:15:09 17° SSE visible
24 Oct 5.5 20:52:24 10° W 20:53:36 11° W 20:54:47 10° WSW visible
25 Oct 2.9 18:48:01 10° NNW 18:53:36 72° WSW 18:59:07 10° SSE visible
25 Oct 5.4 20:34:29 10° WNW 20:36:26 12° W 20:38:25 10° WSW visible
26 Oct 2.8 18:30:46 10° NNW 18:36:22 78° WSW 18:41:55 10° SSE visible
26 Oct 5.4 20:16:48 10° WNW 20:19:17 13° W 20:21:47 10° WSW visible
